Location: Julian California
(33.0790°N, 116.6010°W)
Time: 19:23:26
(UTC-07:00)

Helios 1A - Pass Details

Date: 19 May 2017
Orbit: 586 x 604 km, 98.3° (Epoch: 15 August)

Event Time Altitude Azimuth Distance (km) Brightness Sun altitude
Exits shadow 21:03:56 14° 177° (S) 1,666 4.9 -15.5°
Maximum altitude 21:07:27 67° 258° (WSW) 651 3.3 -16.1°
Drops below altitude 10° 21:11:39 10° 342° (NNW) 1,943 6.5 -16.8°
Sets 21:13:50 0° 345° (NNW) 2,846 7.4 -17.2°
